Hourly Data Report for December 13, 2016

TORONTO CITY
ONTARIO

43°40'00.000" N
79°24'00.000" W
112.50 m
6158355
71508
XTO

Download Data

Hourly Data (December 2016)
Hourly Data Report for December 13, 2016
TIME
LST
Temp Definition
°C
Dew Point Definition
°C
Rel Hum Definition
%
Precip. Amount Definition
mm

Wind Dir Definition
10's deg

Wind Spd Definition
km/h
Visibility Definition
km
Stn Press Definition
kPa
Hmdx Definition


Wind Chill Definition


Weather Definition


00:00 -0.5 -4.1 77 0.0 LegendMM LegendMM   100.32     LegendNANA
01:00 -0.7 -4.4 76 0.0 LegendMM LegendMM   100.33     LegendNANA
02:00 -0.9 -4.7 76 0.0 LegendMM LegendMM   100.35     LegendNANA
03:00 -1.4 -5.1 75 0.0 LegendMM LegendMM   100.38     LegendNANA
04:00 -1.2 -5.8 71 0.0 LegendMM LegendMM   100.33     LegendNANA
05:00 -1.3 -6.0 70 0.0 LegendMM LegendMM   100.31     LegendNANA
06:00 -1.0 -6.0 69 0.0 LegendMM LegendMM   100.33     LegendNANA
07:00 -0.9 -5.8 70 0.0 LegendMM LegendMM   100.32     LegendNANA
08:00 -0.9 -5.5 71 0.0 LegendMM LegendMM   100.25     LegendNANA
09:00 -1.2 -5.5 72 0.0 LegendMM LegendMM   100.39     LegendNANA
10:00 -1.2 -5.4 73 0.0 LegendMM LegendMM   100.35     LegendNANA
11:00 -1.3 -8.5 58 0.0 LegendMM LegendMM   100.27     LegendNANA
12:00 -2.0 -6.7 70 0.0 LegendMM LegendMM   100.23     LegendNANA
13:00 -1.7 -5.6 74 0.0 LegendMM LegendMM   100.19     LegendNANA
14:00 -1.1 -5.1 74 0.0 LegendMM LegendMM   100.13     LegendNANA
15:00 -0.5 -4.8 73 0.0 LegendMM LegendMM   100.06     LegendNANA
16:00 -0.3 -5.4 69 0.0 LegendMM LegendMM   100.07     LegendNANA
17:00 -0.5 -5.4 70 0.0 LegendMM LegendMM   100.01     LegendNANA
18:00 -0.9 -5.5 71 0.0 LegendMM LegendMM   100.00     LegendNANA
19:00 -1.2 -6.3 68 0.0 LegendMM LegendMM   100.04     LegendNANA
20:00 -1.7 -7.3 66 0.0 LegendMM LegendMM   100.04     LegendNANA
21:00 -2.1 -7.1 69 0.0 LegendMM LegendMM   100.07     LegendNANA
22:00 -2.3 -9.2 59 0.0 LegendMM LegendMM   100.09     LegendNANA
23:00 -3.4 -11.1 55 0.0 LegendMM LegendMM   100.17     LegendNANA

Notes on Data Quality.

Legend

  • E = Estimated
  • M = Missing
  • NA = Not Available*
  • [empty] = Indicates an unobserved value
Date modified: